N9WFD Weather Reports


time (UTC)temp
C
wind
direction
speed
KPH
gust
KPH
rain 1hr
cm
rain 24hr
cm
rain mn
cm
humidity
%
barometer
mb
20260504004524 18 347 6.4 14.5 0.00 0.00 0.00 47 1004.0
20260504003035 19 335 8.0 14.5 0.00 0.00 0.00 46 1004.1
20260504001521 19 345 6.4 17.7 0.00 0.00 0.00 45 1004.1
20260504000020 20 12 9.7 22.5 0.00 0.00 0.00 44 1004.2
20260503234519 20 44 11.3 19.3 0.00 0.00 0.00 43 1004.1
20260503233017 20 21 16.1 27.4 0.00 0.00 0.00 43 1004.2
20260503231515 20 29 14.5 29.0 0.00 0.00 0.00 43 1004.5
20260503230013 20 350 11.3 30.6 0.00 0.00 0.00 43 1004.4
20260503224524 20 21 12.9 30.6 0.00 0.00 0.00 43 1004.5
20260503223011 20 323 14.5 33.8 0.00 0.00 0.00 43 1004.4
20260503221507 20 347 16.1 29.0 0.00 0.00 0.00 43 1004.5
20260503220009 19 315 20.9 38.6 0.00 0.00 0.00 44 1004.7
20260503214501 18 308 19.3 32.2 0.00 0.00 0.00 44 1004.9
20260503213059 18 347 12.9 30.6 0.00 0.00 0.00 45 1005.1
20260503211558 18 308 12.9 43.5 0.00 0.00 0.00 44 1005.3
20260503210053 18 312 19.3 40.2 0.00 0.00 0.00 44 1005.8
20260503204552 18 338 25.7 41.8 0.00 0.00 0.00 43 1005.9
20260503203049 18 338 30.6 59.5 0.00 0.00 0.00 43 1006.2
20260503201546 18 338 25.7 46.7 0.00 0.00 0.00 45 1006.4
20260503200039 16 331 14.5 33.8 0.00 0.00 0.00 52 1007.0
20260503194537 16 326 17.7 37.0 0.00 0.00 0.00 53 1007.4
20260503193033 16 329 19.3 38.6 0.00 0.00 0.00 51 1007.7
20260503191531 15 293 19.3 37.0 0.00 0.00 0.00 54 1007.7
20260503190028 15 319 24.1 46.7 0.00 0.00 0.00 50 1007.8
20260503184626 15 325 19.3 45.1 0.00 0.00 0.00 52 1007.9
20260503183025 14 314 27.4 41.8 0.00 0.00 0.00 50 1007.9
20260503181521 15 308 20.9 41.8 0.00 0.00 0.00 52 1008.2
20260503180052 14 314 24.1 38.6 0.00 0.00 0.00 53 1008.5
20260503174546 13 311 14.5 40.2 0.00 0.00 0.00 57 1009.0
20260503173040 13 296 19.3 46.7 0.00 0.00 0.00 58 1009.4
20260503171559 12 283 20.9 37.0 0.00 0.00 0.00 63 1010.1
20260503081517 8 343 8.0 14.5 0.00 0.00 0.00 51 1013.7
20260503071513 8 331 9.7 16.1 0.00 0.00 0.00 52 1014.0
20260503054604 8 342 6.4 9.7 0.00 0.00 0.00 52 1014.7
20260503053059 8 341 4.8 9.7 0.00 0.00 0.00 53 1014.8
20260503051556 8 324 4.8 9.7 0.00 0.00 0.00 53 1014.9
20260503050054 8 326 3.2 9.7 0.00 0.00 0.00 53 1014.9
20260503044556 8 339 3.2 11.3 0.00 0.00 0.00 53 1015.0
20260503043053 8 338 4.8 9.7 0.00 0.00 0.00 53 1015.1
20260503041549 8 345 4.8 8.0 0.00 0.00 0.00 53 1015.2
20260503040048 8 328 1.6 6.4 0.00 0.00 0.00 53 1015.3
20260503034548 8 324 3.2 6.4 0.00 0.00 0.00 53 1015.4
20260503033047 8 318 3.2 8.0 0.00 0.00 0.00 54 1015.4
20260503031544 8 321 3.2 8.0 0.00 0.00 0.00 53 1015.5
20260503030045 9 326 4.8 8.0 0.00 0.03 0.00 53 1015.6
20260503024543 9 333 3.2 6.4 0.00 0.03 0.00 53 1015.7
20260503023043 9 331 3.2 6.4 0.00 0.03 0.00 53 1015.6
20260503021512 9 333 1.6 6.4 0.00 0.03 0.00 53 1015.6
20260503020011 10 337 3.2 6.4 0.00 0.05 0.00 51 1015.6
20260503014509 10 341 3.2 6.4 0.00 0.05 0.00 49 1015.5
20260503013012 10 343 3.2 6.4 0.00 0.05 0.00 48 1015.4
20260503011506 10 347 3.2 6.4 0.00 0.05 0.00 47 1015.4
20260503010006 11 352 4.8 8.0 0.00 0.08 0.00 46 1015.4